[[{"header":{"parameterUnit":"m.s-1","parameterCategory":1,"la1":30.2992,"la2":30.254,"lo1":-89.0895,"lo2":-89.0443,"dy":0.0025,"dx":0.0025,"nx":19,"ny":19,"refTime":"2026-03-12T03:00:00:Z","depth":0,"parameterNumber":2,"parameterNumberName":"U-component_of_WINDS"},"data":[0,0,0,-2.6605,-2.6606,-2.6671,-2.6671,-2.6749,-2.6749,0,0,0,0,0,0,0,0,0,0,0,-2.6583,-2.6584,-2.6605,-2.6606,-2.6671,-2.6671,-2.6748,-2.6749,0,0,0,0,0,0,0,0,0,0,0,-2.6583,-2.6584,-2.6584,-2.6607,-2.6671,-2.6671,-2.6748,-2.6701,0,0,0,0,0,0,0,0,0,0,-2.6639,-2.6617,-2.6583,-2.6584,-2.6607,-2.6671,-2.6671,-2.6699,-2.6704,-2.6717,0,-2.6729,0,-2.674,-2.6754,-2.6754,0,0,0,-2.6608,-2.6613,-2.6633,-2.6584,-2.6608,-2.6671,-2.6642,-2.6702,-2.6708,-2.6724,-2.673,-2.6733,-2.6742,-2.6755,-2.6755,-2.6827,-2.6828,0,0,-2.6604,-2.6593,-2.6629,-2.6636,-2.6627,-2.664,-2.6644,-2.6706,-2.6711,-2.673,-2.6735,-2.6743,-2.6755,-2.6756,-2.6827,-2.6827,0,0,0,-2.6593,-2.6591,-2.6609,-2.6633,-2.6645,-2.6642,-2.6647,-2.6708,-2.6715,-2.6736,-2.6744,-2.6755,-2.6756,-2.6827,-2.6827,-2.6829,0,0,0,-2.6591,-2.6584,-2.6608,-2.6601,-2.6644,-2.6678,-2.6648,-2.6711,-2.6718,-2.6743,-2.6756,-2.6757,-2.6827,-2.6827,-2.6828,-2.6831,0,0,0,-2.658,-2.6583,-2.6591,-2.6601,-2.6628,-2.6677,-2.6688,-2.6713,-2.6723,-2.6754,-2.6757,-2.6826,-2.6827,-2.6828,-2.683,-2.6846,0,0,0,-2.6564,-2.6591,-2.6591,-2.6625,-2.6628,-2.6678,-2.6687,-2.6725,-2.6753,-2.6756,-2.6827,-2.6827,-2.6828,-2.6829,-2.6845,-2.6856,-2.686,0,0,-2.6592,-2.6594,-2.6615,-2.6617,-2.6665,-2.6669,-2.6718,-2.6752,-2.6765,-2.6806,-2.6808,-2.6829,-2.683,-2.6846,-2.689,-2.6893,0,0,0,-2.662,-2.6635,-2.665,-2.6676,-2.6704,-2.6729,-2.6758,-2.6771,-2.6806,-2.6784,-2.684,-2.6841,-2.6851,-2.6857,-2.6859,-2.6868,-2.683,-2.683,-2.683,-2.6641,-2.6658,-2.6693,-2.6718,-2.6743,-2.6774,-2.6795,-2.6818,-2.6827,-2.684,-2.6851,-2.6876,-2.6882,-2.6884,-2.6893,-2.686,-2.686,-2.686,-2.686,-2.6682,-2.6705,-2.6718,-2.6756,-2.6773,-2.6806,-2.6837,-2.6842,-2.6874,-2.6868,-2.6878,-2.6868,-2.6887,-2.6896,-2.686,-2.686,-2.686,-2.686,-2.686,-2.6696,-2.671,-2.6727,-2.6767,-2.6796,-2.6821,-2.6851,-2.6866,-2.688,-2.689,-2.6903,-2.6903,-2.6903,-2.6895,-2.6895,-2.6895,-2.6896,-2.6896,-2.6896,-2.6703,-2.6723,-2.6747,-2.6781,-2.68,-2.6827,-2.686,-2.6879,-2.6903,-2.6912,-2.6912,-2.6918,-2.6887,-2.6877,-2.6897,-2.6897,-2.6897,-2.6896,-2.6896,-2.6735,-2.6731,-2.6768,-2.6788,-2.6829,-2.6857,-2.6877,-2.6914,-2.6932,-2.6947,-2.6953,-2.6928,-2.693,-2.6928,-2.692,-2.695,-2.695,-2.695,-2.695,-2.6746,-2.675,-2.6792,-2.6822,-2.6853,-2.6875,-2.6916,-2.6943,-2.6969,-2.6981,-2.6979,-2.6971,-2.6969,-2.6973,-2.697,-2.6963,-2.7002,-2.7002,-2.7002,-2.6766,-2.6774,-2.6806,-2.6833,-2.6867,-2.6895,-2.6934,-2.6968,-2.6997,-2.7005,-2.699,-2.6988,-2.6975,-2.697,-2.6975,-2.697,-2.6957,0,0]},{"header":{"parameterUnit":"m.s-1","parameterCategory":1,"la1":30.2992,"la2":30.254,"lo1":-89.0895,"lo2":-89.0443,"dy":0.0025,"dx":0.0025,"nx":19,"ny":19,"refTime":"2026-03-12T03:00:00:Z","depth":0,"parameterNumber":3,"parameterNumberName":"V-component_of_WINDS"},"data":[0,0,0,4.8631,4.8632,4.868,4.868,4.8732,4.8733,0,0,0,0,0,0,0,0,0,0,0,4.8611,4.8612,4.8631,4.8632,4.868,4.868,4.8732,4.8733,0,0,0,0,0,0,0,0,0,0,0,4.8611,4.8612,4.8612,4.8632,4.868,4.868,4.8732,4.8699,0,0,0,0,0,0,0,0,0,0,4.8654,4.8631,4.8612,4.8612,4.8633,4.868,4.868,4.8698,4.8701,4.8707,0,4.8711,0,4.8723,4.8736,4.8736,0,0,0,4.8636,4.8628,4.8646,4.8612,4.8633,4.868,4.8659,4.87,4.8704,4.8712,4.8711,4.8714,4.8724,4.8736,4.8736,4.8758,4.8758,0,0,4.8633,4.8617,4.8643,4.8648,4.864,4.8658,4.8661,4.8702,4.8701,4.8712,4.8715,4.8724,4.8736,4.8737,4.8758,4.8758,0,0,0,4.8623,4.8615,4.8632,4.8646,4.8655,4.8659,4.8663,4.8699,4.8706,4.8716,4.8725,4.8737,4.8737,4.8759,4.8758,4.874,0,0,0,4.8622,4.8609,4.8631,4.8621,4.8654,4.8678,4.8658,4.8703,4.8709,4.8725,4.8737,4.8738,4.8759,4.8758,4.8741,4.8733,0,0,0,4.861,4.8608,4.8613,4.862,4.864,4.8677,4.8687,4.8705,4.8714,4.8736,4.8738,4.8759,4.8759,4.8741,4.8734,4.8736,0,0,0,4.8593,4.8593,4.8612,4.8617,4.864,4.8666,4.8687,4.8707,4.8723,4.8737,4.8759,4.8758,4.8741,4.8735,4.8736,4.8734,4.8732,0,0,4.8584,4.8592,4.8596,4.8614,4.8633,4.866,4.8676,4.8705,4.8722,4.8745,4.8746,4.874,4.8735,4.8736,4.8722,4.872,0,0,0,4.8588,4.8591,4.86,4.8615,4.864,4.866,4.869,4.8702,4.8723,4.8731,4.8741,4.8738,4.874,4.874,4.8738,4.8741,4.8757,4.8758,4.8758,4.8551,4.8575,4.8584,4.8614,4.8629,4.8662,4.8676,4.8698,4.8714,4.8717,4.8724,4.8713,4.8712,4.8711,4.8713,4.8724,4.8724,4.8724,4.8724,4.8542,4.8551,4.8577,4.8595,4.862,4.8636,4.8668,4.868,4.8698,4.8709,4.8711,4.872,4.8707,4.8711,4.8723,4.8723,4.8723,4.8723,4.8723,4.8522,4.853,4.8546,4.8573,4.8592,4.8622,4.864,4.8661,4.8681,4.8684,4.8695,4.8695,4.8699,4.8687,4.8687,4.8687,4.8687,4.8687,4.8687,4.8494,4.8512,4.8525,4.8553,4.8568,4.859,4.8625,4.864,4.8662,4.8676,4.8676,4.8694,4.8702,4.8704,4.8687,4.8687,4.8687,4.8687,4.8687,4.8477,4.8485,4.8504,4.8519,4.8556,4.8574,4.8603,4.8632,4.8647,4.8656,4.8674,4.8676,4.8685,4.8686,4.8688,4.8668,4.8668,4.8668,4.8668,4.846,4.8467,4.8494,4.8517,4.8542,4.857,4.8592,4.862,4.865,4.8661,4.8667,4.8672,4.8672,4.8681,4.8682,4.8684,4.8664,4.8664,4.8664,4.8452,4.8463,4.8477,4.8508,4.8539,4.8565,4.8588,4.8613,4.8649,4.8664,4.8671,4.8671,4.8678,4.8679,4.8694,4.8696,4.87,0,0]}]]